�������l�o���
Date,Time,MP-1(��Sv/h),MP-2(��Sv/h),MP-3(��Sv/h),MP-4(��Sv/h),MP-5(��Sv/h),MP-6(��Sv/h),MP-7(��Sv/h),MP-8(��Sv/h),����,����(m/s),���J
2018/12/03,00:00,0.792,1.195,0.842,1.503,1.083,0.456,0.807,0.763,��쐼,2.8,��
2018/12/03,00:10,0.792,1.196,0.839,1.503,1.082,0.456,0.806,0.762,��쐼,3.1,��
2018/12/03,00:20,0.793,1.197,0.839,1.502,1.086,0.457,0.809,0.762,��쐼,3.5,��
2018/12/03,00:30,0.793,1.196,0.841,1.499,1.084,0.456,0.807,0.763,��쐼,3.6,��
2018/12/03,00:40,0.793,1.196,0.838,1.500,1.084,0.456,0.806,0.763,��쐼,4.2,��
2018/12/03,00:50,0.794,1.195,0.839,1.500,1.084,0.457,0.805,0.763,��쐼,3.9,��
2018/12/03,01:00,0.794,1.194,0.838,1.501,1.080,0.457,0.805,0.764,��쐼,3.0,��
2018/12/03,01:10,0.793,1.195,0.839,1.502,1.083,0.457,0.807,0.763,��,3.5,��
2018/12/03,01:20,0.792,1.198,0.841,1.502,1.084,0.455,0.806,0.763,��,3.3,��
2018/12/03,01:30,0.793,1.194,0.838,1.504,1.085,0.457,0.807,0.764,��,4.2,��
2018/12/03,01:40,0.791,1.195,0.840,1.503,1.081,0.455,0.807,0.762,��,3.3,��
2018/12/03,01:50,0.791,1.194,0.839,1.500,1.083,0.454,0.806,0.763,��,3.8,��
2018/12/03,02:00,0.794,1.195,0.841,1.500,1.085,0.457,0.808,0.762,��쐼,2.8,��
2018/12/03,02:10,0.790,1.196,0.838,1.501,1.083,0.458,0.807,0.763,��쐼,1.9,��
2018/12/03,02:20,0.793,1.193,0.838,1.503,1.083,0.457,0.807,0.762,��쐼,2.2,��
2018/12/03,02:30,0.792,1.197,0.840,1.501,1.082,0.456,0.806,0.763,��쐼,1.9,��
2018/12/03,02:40,0.793,1.194,0.838,1.499,1.082,0.458,0.807,0.762,�쐼,1.2,��
2018/12/03,02:50,0.791,1.194,0.839,1.502,1.082,0.457,0.805,0.762,�쐼,0.9,��
2018/12/03,03:00,0.791,1.195,0.839,1.500,1.081,0.455,0.807,0.762,���쐼,1.5,��
2018/12/03,03:10,0.793,1.196,0.840,1.501,1.083,0.455,0.806,0.762,��,1.4,��
2018/12/03,03:20,0.791,1.196,0.841,1.503,1.082,0.455,0.807,0.763,���쐼,1.2,��
2018/12/03,03:30,0.791,1.197,0.840,1.501,1.083,0.457,0.809,0.763,�쐼,3.1,��
2018/12/03,03:40,0.793,1.196,0.841,1.502,1.083,0.455,0.806,0.762,���쐼,3.3,��
2018/12/03,03:50,0.791,1.194,0.838,1.504,1.082,0.456,0.806,0.760,���쐼,2.9,��
2018/12/03,04:00,0.793,1.196,0.839,1.505,1.082,0.456,0.808,0.763,�k��,1.7,��
2018/12/03,04:10,0.793,1.198,0.838,1.504,1.083,0.456,0.807,0.763,�k,2.8,��
2018/12/03,04:20,0.792,1.195,0.840,1.501,1.086,0.456,0.805,0.763,�k,4.7,��
2018/12/03,04:30,0.793,1.199,0.841,1.504,1.083,0.456,0.806,0.765,�k,6.7,��
2018/12/03,04:40,0.793,1.195,0.839,1.502,1.081,0.456,0.808,0.765,�k,5.8,��
2018/12/03,04:50,0.792,1.196,0.841,1.503,1.084,0.457,0.805,0.763,�k,7.1,��
2018/12/03,05:00,0.793,1.198,0.841,1.500,1.084,0.457,0.805,0.763,�k�k��,6.3,��
2018/12/03,05:10,0.792,1.196,0.840,1.504,1.083,0.454,0.806,0.764,�k�k��,7.0,��
2018/12/03,05:20,0.792,1.197,0.840,1.506,1.084,0.456,0.807,0.763,�k,6.4,��
2018/12/03,05:30,0.790,1.197,0.837,1.502,1.085,0.454,0.809,0.764,�k,5.8,��
2018/12/03,05:40,0.793,1.197,0.840,1.504,1.082,0.456,0.805,0.763,�k�k��,6.9,��
2018/12/03,05:50,0.793,1.194,0.841,1.503,1.083,0.457,0.805,0.764,�k�k��,4.7,��
2018/12/03,06:00,0.793,1.195,0.841,1.504,1.083,0.457,0.805,0.763,�k�k��,5.1,��
2018/12/03,06:10,0.791,1.196,0.842,1.504,1.085,0.457,0.805,0.764,�k�k��,5.5,��
2018/12/03,06:20,0.791,1.196,0.840,1.501,1.082,0.456,0.807,0.763,�k�k��,5.6,��
2018/12/03,06:30,0.791,1.195,0.841,1.503,1.081,0.456,0.807,0.763,�k,6.0,��
2018/12/03,06:40,0.790,1.196,0.840,1.504,1.083,0.455,0.805,0.762,�k�k��,5.9,��
2018/12/03,06:50,0.793,1.195,0.840,1.506,1.082,0.454,0.807,0.764,�k�k��,5.7,��
2018/12/03,07:00,0.793,1.196,0.839,1.502,1.082,0.454,0.806,0.762,�k�k��,5.9,��
2018/12/03,07:10,0.791,1.194,0.837,1.502,1.081,0.455,0.806,0.763,�k�k��,6.4,��
2018/12/03,07:20,0.792,1.197,0.838,1.503,1.081,0.455,0.805,0.763,�k�k��,6.5,��
2018/12/03,07:30,0.791,1.195,0.840,1.502,1.083,0.456,0.807,0.764,�k�k��,5.6,��
2018/12/03,07:40,0.793,1.194,0.839,1.502,1.084,0.456,0.806,0.765,�k,6.2,��
2018/12/03,07:50,0.790,1.194,0.840,1.504,1.083,0.454,0.807,0.762,�k�k��,5.8,��
2018/12/03,08:00,0.791,1.196,0.839,1.501,1.084,0.456,0.805,0.762,�k,4.7,��
2018/12/03,08:10,0.793,1.191,0.840,1.502,1.082,0.454,0.805,0.765,�k�k��,4.2,��
2018/12/03,08:20,0.793,1.197,0.840,1.503,1.079,0.456,0.805,0.763,�k�k��,4.5,��
2018/12/03,08:30,0.792,1.195,0.838,1.501,1.082,0.456,0.805,0.764,�k�k��,3.3,��
2018/12/03,08:40,0.793,1.194,0.837,1.501,1.082,0.455,0.807,0.764,�k,3.4,��
2018/12/03,08:50,0.791,1.196,0.838,1.503,1.082,0.454,0.805,0.765,�k�k��,3.5,��
2018/12/03,09:00,0.793,1.195,0.839,1.500,1.082,0.454,0.807,0.765,�k�k��,2.9,��
2018/12/03,09:10,0.793,1.194,0.838,1.502,1.084,0.456,0.807,0.763,�k�k��,2.6,��
2018/12/03,09:20,0.794,1.195,0.839,1.504,1.085,0.456,0.807,0.764,�k�k��,2.2,��
2018/12/03,09:30,0.793,1.193,0.839,1.503,1.084,0.456,0.806,0.763,�k�k��,2.0,��
2018/12/03,09:40,0.794,1.191,0.839,1.502,1.086,0.455,0.805,0.765,�k��,1.5,��
2018/12/03,09:50,0.793,1.192,0.839,1.500,1.081,0.454,0.805,0.766,���k��,0.8,��
2018/12/03,10:00,0.793,1.189,0.837,1.502,1.082,0.456,0.807,0.765,��,0.9,��
2018/12/03,10:10,0.794,1.190,0.838,1.503,1.084,0.455,0.806,0.764,���쐼,0.6,��
2018/12/03,10:20,0.795,1.192,0.840,1.504,1.085,0.456,0.805,0.764,���쐼,0.6,��
2018/12/03,10:30,0.794,1.193,0.839,1.503,1.084,0.456,0.806,0.765,-,CALM,��
2018/12/03,10:40,0.794,1.193,0.839,1.502,1.084,0.457,0.806,0.766,-,CALM,��
2018/12/03,10:50,0.793,1.191,0.838,1.502,1.084,0.454,0.805,0.764,��,1.1,��
2018/12/03,11:00,0.794,1.194,0.839,1.503,1.085,0.456,0.805,0.764,-,CALM,��
2018/12/03,11:10,0.794,1.197,0.839,1.501,1.086,0.455,0.807,0.763,��쓌,0.8,��
2018/12/03,11:20,0.794,1.191,0.839,1.504,1.086,0.456,0.806,-,��쓌,0.6,��
2018/12/03,11:30,0.794,1.196,0.840,1.505,1.086,0.457,0.806,-,�k,1.4,��
2018/12/03,11:40,0.794,1.195,0.838,1.504,1.086,0.456,0.805,-,�k,1.1,��
2018/12/03,11:50,0.793,1.195,0.839,1.501,1.085,0.456,0.807,-,-,CALM,��
2018/12/03,12:00,0.796,1.199,0.840,1.501,1.083,0.455,0.804,-,�k�k��,0.6,��
2018/12/03,12:10,0.794,1.195,0.840,1.503,1.086,0.456,0.805,-,�k�k��,1.2,��
2018/12/03,12:20,0.794,1.196,0.837,1.502,1.087,0.457,0.807,-,�k,1.7,��
2018/12/03,12:30,0.795,1.194,0.841,1.504,1.082,0.457,0.805,-,�k,1.5,��
2018/12/03,12:40,0.793,1.193,0.840,1.503,1.086,0.456,0.806,-,�k,1.2,��
2018/12/03,12:50,0.794,1.192,0.840,1.502,1.087,0.458,0.806,-,�k�k��,0.6,��
2018/12/03,13:00,0.794,1.193,0.840,1.504,1.086,0.456,0.804,-,�k�k��,1.2,��
2018/12/03,13:10,0.795,1.188,0.841,1.504,1.087,0.456,0.805,-,�k�k��,1.7,��
2018/12/03,13:20,0.796,1.194,0.840,1.505,1.086,0.455,0.806,-,�k�k��,2.0,��
2018/12/03,13:30,0.795,1.193,0.840,1.504,1.087,0.455,0.806,-,�k�k��,2.3,��
2018/12/03,13:40,0.796,1.195,0.841,1.505,1.088,0.456,0.806,-,�k�k��,1.9,��
2018/12/03,13:50,0.795,1.191,0.841,1.505,1.086,0.457,0.806,-,�k,2.3,��
2018/12/03,14:00,0.793,1.192,0.837,1.504,1.085,0.457,0.804,-,�k�k��,2.8,��
2018/12/03,14:10,0.794,1.194,0.838,1.504,1.083,0.457,0.804,-,�k�k��,1.9,��
2018/12/03,14:20,0.794,1.193,0.842,1.504,1.085,0.457,0.808,-,�k,1.5,��
2018/12/03,14:30,0.798,1.193,0.839,1.502,1.085,0.457,0.805,-,�k,1.7,��
2018/12/03,14:40,0.796,1.191,0.843,1.505,1.085,0.456,0.804,-,�k,1.4,��
2018/12/03,14:50,0.796,1.194,0.841,1.504,1.086,0.455,0.807,-,�k�k��,1.2,��
2018/12/03,15:00,0.797,1.195,0.839,1.503,1.086,0.457,0.806,-,�k��,0.6,��
2018/12/03,15:10,0.795,1.191,0.838,1.502,1.085,0.460,0.806,-,-,CALM,��
2018/12/03,15:20,0.795,1.194,0.841,1.503,1.086,0.456,0.805,-,��,0.6,��
2018/12/03,15:30,0.794,1.195,0.841,1.504,1.083,0.457,0.807,0.765,��,0.6,��
2018/12/03,15:40,0.796,1.197,0.841,1.505,1.087,0.457,0.805,0.764,-,CALM,��
2018/12/03,15:50,0.795,1.196,0.841,1.506,1.085,0.455,0.806,0.765,��쓌,0.6,��
2018/12/03,16:00,0.796,1.197,0.838,1.502,1.087,0.457,0.806,0.766,��쓌,0.9,��
2018/12/03,16:10,0.796,1.198,0.840,1.502,1.086,0.457,0.807,0.765,��쓌,0.8,��
2018/12/03,16:20,0.795,1.196,0.841,1.503,1.085,0.456,0.808,0.765,���k��,1.2,��
2018/12/03,16:30,0.793,1.197,0.839,1.503,1.088,0.457,0.807,0.765,�k��,0.9,��
2018/12/03,16:40,0.795,1.198,0.841,1.503,1.086,0.457,0.807,0.766,���k��,0.9,��
2018/12/03,16:50,0.794,1.199,0.839,1.501,1.084,0.457,0.806,0.764,��,0.8,��
2018/12/03,17:00,0.795,1.200,0.840,1.504,1.085,0.457,0.807,0.763,���쓌,1.1,��
2018/12/03,17:10,0.792,1.200,0.842,1.503,1.085,0.455,0.805,0.765,���k��,1.1,��
2018/12/03,17:20,0.795,1.201,0.841,1.505,1.087,0.456,0.805,0.764,�k��,0.6,��
2018/12/03,17:30,0.794,1.201,0.841,1.502,1.083,0.455,0.807,0.763,�k��,0.8,��
2018/12/03,17:40,0.794,1.201,0.842,1.504,1.086,0.456,0.806,0.765,��,1.2,��
2018/12/03,17:50,0.792,1.201,0.842,1.504,1.088,0.455,0.807,0.765,��,1.2,��
2018/12/03,18:00,0.795,1.196,0.840,1.499,1.086,0.458,0.806,0.766,���k��,1.2,��
2018/12/03,18:10,0.794,1.198,0.839,1.491,1.086,0.456,0.807,0.764,�k�k��,1.2,��
2018/12/03,18:20,0.792,1.197,0.841,1.495,1.082,0.456,0.807,0.764,�k�k��,1.5,��
2018/12/03,18:30,0.794,1.199,0.840,1.498,1.085,0.456,0.805,0.763,�k,2.3,��
2018/12/03,18:40,0.793,1.199,0.840,1.499,1.086,0.457,0.805,0.764,�k�k��,2.0,��
2018/12/03,18:50,0.791,1.198,0.842,1.498,1.083,0.456,0.806,0.761,�k�k��,1.7,��
2018/12/03,19:00,0.793,1.198,0.839,1.498,1.084,0.456,0.806,0.764,�k�k��,1.7,��
2018/12/03,19:10,0.793,1.197,0.838,1.500,1.083,0.457,0.805,0.763,�k�k��,1.4,��
2018/12/03,19:20,0.793,1.196,0.841,1.497,1.083,0.456,0.806,0.763,�k�k��,1.2,��
2018/12/03,19:30,0.793,1.197,0.840,1.497,1.085,0.455,0.806,0.763,�k,1.4,��
2018/12/03,19:40,0.793,1.198,0.840,1.499,1.084,0.457,0.808,0.763,�k�k��,1.2,��
2018/12/03,19:50,0.793,1.198,0.841,1.498,1.084,0.456,0.808,0.763,�k�k��,0.6,��
2018/12/03,20:00,0.793,1.198,0.839,1.500,1.084,0.455,0.807,0.765,-,CALM,��
2018/12/03,20:10,0.793,1.197,0.840,1.501,1.086,0.457,0.807,0.763,��쓌,0.6,��
2018/12/03,20:20,0.795,1.196,0.841,1.498,1.085,0.456,0.806,0.763,��,0.8,��
2018/12/03,20:30,0.795,1.197,0.842,1.500,1.085,0.455,0.808,0.765,��쐼,0.6,��
2018/12/03,20:40,0.794,1.195,0.842,1.500,1.084,0.456,0.807,0.765,�쐼,0.9,��
2018/12/03,20:50,0.794,1.197,0.843,1.501,1.085,0.457,0.809,0.764,�쐼,0.6,��
2018/12/03,21:00,0.792,1.195,0.842,1.499,1.084,0.457,0.808,0.763,�쐼,0.9,��
2018/12/03,21:10,0.794,1.197,0.843,1.499,1.085,0.456,0.809,0.763,���쐼,1.1,��
2018/12/03,21:20,0.794,1.198,0.841,1.498,1.086,0.458,0.808,0.765,���쐼,0.9,��
2018/12/03,21:30,0.793,1.199,0.841,1.500,1.084,0.457,0.808,0.764,��쐼,0.9,��
2018/12/03,21:40,0.793,1.199,0.843,1.500,1.084,0.456,0.808,0.762,��쓌,1.5,��
2018/12/03,21:50,0.792,1.197,0.841,1.497,1.084,0.456,0.808,0.762,��쓌,1.7,��
2018/12/03,22:00,0.794,1.196,0.842,1.497,1.084,0.456,0.807,0.765,�쓌,2.5,��
2018/12/03,22:10,0.792,1.195,0.842,1.499,1.085,0.457,0.809,0.764,�쓌,1.9,��
2018/12/03,22:20,0.795,1.198,0.841,1.500,1.086,0.457,0.806,0.764,���쓌,1.9,��
2018/12/03,22:30,0.792,1.195,0.843,1.498,1.082,0.456,0.807,0.763,�쓌,1.5,��
2018/12/03,22:40,0.794,1.196,0.842,1.500,1.083,0.457,0.806,0.764,�쓌,2.0,��
2018/12/03,22:50,0.794,1.197,0.843,1.499,1.083,0.458,0.805,0.765,�쓌,1.5,��
2018/12/03,23:00,0.793,1.197,0.841,1.500,1.084,0.456,0.807,0.766,-,CALM,��
2018/12/03,23:10,0.794,1.197,0.841,1.502,1.086,0.457,0.807,0.765,-,CALM,��
2018/12/03,23:20,0.795,1.197,0.841,1.500,1.084,0.457,0.805,0.764,�쓌,1.2,��
2018/12/03,23:30,0.796,1.195,0.841,1.497,1.084,0.457,0.807,0.765,��쓌,1.5,��
2018/12/03,23:40,0.794,1.198,0.842,1.499,1.083,0.457,0.807,0.765,��쓌,2.9,��
2018/12/03,23:50,0.794,1.197,0.841,1.497,1.084,0.456,0.807,0.762,��,1.7,��
